Starlink 3207

operational
NORAD ID: 49756 Int'l Des: 2021-115 Owner: SPXS Country: US Constellation: starlink
LEOCIRCULAR

关于 Starlink 3207

正在加载描述...

实时位置

正在加载3D地球...

即将过境

高度历史

Altitude vs Time

uPlot chart will show altitude changes over time

两行轨道根数

1 49756U 21115AJ 25258.28337472 -.00000495 00000-0 -13015-4 0 9993
2 49756 53.2161 206.5514 0001421 88.1274 271.9881 15.08841533209197
Epoch: Sep 15, 2025 • Age: 12 hours

当前状态

高度 541.0 km
速度 7.60 km/s
星下点 31.05°N, 84.58°E
发射日期 Dec 2, 2021
运行时间 3.7 years
类型 internet

技术详情

分类 Payload
质量 290.00 kg
干质量 270.00 kg
总质量 290.00 kg
长度 0.20 m
直径 2.80 m
跨度 9.00 m
形状 Box + pan
制造商 SPXS
平台类型 Starlink
阶段状态 In Orbit
所有者/国家 SPXS/US

大型星座

Loading constellations...